IONOSFERA-M 4

Last updated on Sat Oct 25 2025 00:02:33 GMT+0000 (Coordinated Universal Time)

1 64877U 25155B 25297.68525792 .00000138 00000+0 82570-4 0 9996 2 64877 98.5704 260.8782 0001381 113.8865 246.2457 14.21423564 12943
UTC large
Height (km)
Speed (km/s)
/
Latitude / Longitude
Inclination (degrees)
Orbital Period (minutes)
Azimuth
Elevation
Range (km)
Doppler Factor

Next 0 passes for location: London (51.5072 / 0.1276)

Sorry there are no passes over London.